Regional Weather Roundup
Issued by NWS

Home | Current Version | Previous Version | Graphics & Text | Print | Product List | Glossary On
Versions: 1 2 3 4 5 6 7 8 9 10 11 12 13 14 15 16 17 18 19 20 21 22 23 24 25 26 27 28 29 30 31 32 33 34 35 36 37 38 39 40 41 42 43 44 45 46 47 48 49 50
000
ASUS43 KOAX 291010
RWRNE

WEATHER ROUNDUP FOR NEBRASKA
NATIONAL WEATHER SERVICE OMAHA NE
500 AM CDT SUN MAR 29 2015

NOTES: SATELLITE DATA IS BEING USED TO AUGMENT CLOUD COVER ABOVE
       12000 FEET.
       "FAIR" INDICATES FEW OR NO CLOUDS BELOW 12,000 FEET WITH NO
       SIGNIFICANT WEATHER AND/OR OBSTRUCTIONS TO VISIBILITY.

  * THESE STATIONS DO NOT REPORT WEATHER SUCH AS RAIN...SNOW OR FOG.

NEZ001>004-019>022-054>056-291100-
NEBRASKA PANHANDLE

CITY           SKY/WX    TMP DP  RH WIND       PRES   REMARKS
SCOTTSBLUFF    CLEAR     47  17  30 NW25G33   30.07S
ALLIANCE       CLEAR     48  18  30 NW18G30   30.02S
CHADRON        CLEAR     49  24  37 NW16G22   30.08R
KIMBALL        CLEAR     40  17  39 NW6       30.10R
SIDNEY         CLEAR     44  20  38 NW18      30.10R
$$

NEZ057>060-069>072-079>082-291100-
SOUTHWEST NEBRASKA

CITY           SKY/WX    TMP DP  RH WIND       PRES   REMARKS
NORTH PLATTE   PTCLDY    43  31  62 NW7       29.96R
IMPERIAL       PTCLDY    50  27  40 N13       30.03R
LEXINGTON      PTCLDY    57  33  40 N18       29.92R
MCCOOK         MOCLDY    60  31  33 N26G38    29.93R
OGALLALA       CLEAR     44  30  57 NW8       30.04R
$$

NEZ005>010-023>029-035>040-094-291100-
NORTH CENTRAL NEBRASKA

CITY           SKY/WX    TMP DP  RH WIND       PRES   REMARKS
VALENTINE      CLEAR     43  32  65 W10       29.88S
AINSWORTH      CLEAR     44  32  63 NW6       29.88R
BROKEN BOW     MOCLDY    53  35  50 NW9       29.89S
O`NEILL        PTCLDY    48  37  66 W9        29.83S
ORD            PTCLDY    42  34  73 N9        29.86R
THEDFORD       CLEAR     44  34  68 W9        29.95R
$$

NEZ041-046>049-061>064-073>077-083>087-291100-
SOUTH CENTRAL NEBRASKA

CITY           SKY/WX    TMP DP  RH WIND       PRES   REMARKS
GRAND ISLAND   CLEAR     44  36  73 NW6       29.87R
AURORA         PTCLDY    43  37  80 NE3       29.86F
HASTINGS       PTCLDY    45  37  73 NW6       29.85R
HEBRON         MOCLDY    46  38  75 S7        29.81F
HOLDREGE       PTCLDY    57  35  43 N15G25    29.90R
KEARNEY *      PTCLDY    54  37  54 N21       29.88R
YORK           PTCLDY    41  37  87 CALM      29.87R
$$

NEZ011>018-030>034-042>045-291100-
NORTHEAST NEBRASKA

CITY           SKY/WX    TMP DP  RH WIND       PRES   REMARKS
NORFOLK        PTCLDY    44  36  73 VRB5      29.82F
ALBION         PTCLDY    37  32  81 E3        29.84S
BLAIR          CLOUDY    42  34  71 SW10      29.89R
COLUMBUS *     PTCLDY    37  30  75 SE3       29.86F
FREMONT        CLOUDY    40  34  77 SE3       29.88F
TEKAMAH        CLOUDY    42  33  70 S10G21    29.87R
WAYNE          PTCLDY    44  36  73 SW13      29.80S
$$

NEZ050>053-065>068-078-088>093-291100-
SOUTHEAST NEBRASKA

CITY           SKY/WX    TMP DP  RH WIND       PRES   REMARKS
LINCOLN        MOCLDY    44  36  73 SW5       29.89R
OMAHA EPPLEY   CLOUDY    43  34  70 S6        29.91R
BEATRICE       CLOUDY    44  37  76 S12G18    29.84F
FALLS CITY     CLOUDY    41  34  76 S21       29.86F
NEBRASKA CITY  CLOUDY    41  33  73 S18       29.84S
PLATTSMOUTH    CLOUDY    41  32  70 W9G16     29.93R
$$

NEZ044-045-051>053-067-291100-
OMAHA AREA

CITY           SKY/WX    TMP DP  RH WIND       PRES   REMARKS
OMAHA EPPLEY   CLOUDY    43  34  70 S6        29.91R
BLAIR          CLOUDY    42  34  71 SW10      29.89R
FREMONT        CLOUDY    40  34  77 SE3       29.88F
MILLARD        CLOUDY    43  34  71 S3        29.90R
OFFUTT AFB     CLOUDY    42  33  72 SW3       29.90R
PLATTSMOUTH    CLOUDY    41  32  70 W9G16     29.93R
WAHOO          FAIR      41  33  74 W3        29.89R
$$


USA.gov is the U.S. government's official web portal to all federal, state and local government web resources and services.